Location: Kershaw
(34.5481°N, 80.5823°W)
Time: 20:30:51
(UTC+00:00)

Vanguard 2 Rocket - Pass Details

Date: 03 October 2022
Orbit: 555 x 3321 km, 32.9° (Epoch: 28 November)

Event Time Altitude Azimuth Distance (km) Brightness Sun altitude
Exits shadow 08:36:54 17° 130° (SE) 1,779 8.6 -33.5°
Drops below altitude 10° 08:37:51 10° 125° (SE) 2,118 9.1 -33.4°
Sets 08:39:50 0° 120° (ESE) 2,889 10.0 -33.0°
